FW6943 Weather Reports


time (UTC)temp
C
wind
direction
speed
KPH
gust
KPH
rain 1hr
cm
rain 24hr
cm
rain mn
cm
humidity
%
barometer
mb
20260906114522 17 109 0.0 1.6 0.03 0.03 0.03 86 989.4
20260906113010 17 110 0.0 3.2 0.03 0.05 0.03 86 989.1
20260906111510 17 110 0.0 0.0 0.03 0.05 0.03 86 989.3
20260906110008 17 110 0.0 0.0 0.00 0.03 0.00 86 989.2
20260906104508 17 111 0.0 1.6 0.00 0.03 0.00 86 989.3
20260906103010 17 112 0.0 0.0 0.00 0.03 0.00 86 989.1
20260906101506 17 112 0.0 0.0 0.00 0.03 0.00 86 988.7
20260906100004 17 112 0.0 0.0 0.00 0.03 0.00 86 988.6
20260906094503 17 112 0.0 0.0 0.00 0.03 0.00 86 988.6
20260906093117 17 112 0.0 0.0 0.00 0.03 0.00 86 988.5
20260906091600 17 112 0.0 0.0 0.00 0.03 0.00 85 988.6
20260906090135 17 112 0.0 0.0 0.00 0.03 0.00 85 988.7
20260906084603 17 112 0.0 0.0 0.00 0.03 0.00 85 988.9
20260906083055 17 112 0.0 0.0 0.00 0.03 0.00 85 989.0
20260906081551 17 112 0.0 0.0 0.00 0.03 0.00 85 988.9
20260906074554 17 112 0.0 0.0 0.00 0.03 0.00 85 989.0
20260906073048 17 112 0.0 0.0 0.00 0.03 0.00 85 989.0
20260906071517 17 112 0.0 0.0 0.00 0.03 0.00 85 989.1
20260906070017 17 112 0.0 0.0 0.00 0.03 0.00 85 989.1
20260906064513 17 112 0.0 0.0 0.00 0.03 0.00 85 989.2
20260906063013 17 112 0.0 4.8 0.00 0.03 0.03 85 989.2
20260906061512 17 117 0.0 0.0 0.00 0.03 0.03 83 989.1
20260906060010 17 117 0.0 0.0 0.00 0.03 0.03 83 989.0
20260906054506 17 117 0.0 0.0 0.00 0.03 0.03 83 988.9
20260906053005 18 117 0.0 0.0 0.00 0.03 0.03 83 988.6
20260906051504 18 117 0.0 0.0 0.00 0.03 0.03 82 988.9
20260906050004 18 117 0.0 0.0 0.00 0.03 0.03 82 988.9
20260906044613 18 117 0.0 0.0 0.00 0.03 0.03 82 989.0
20260906043101 18 117 0.0 0.0 0.00 0.03 0.03 81 989.0
20260906041557 18 117 0.0 0.0 0.00 0.03 0.03 80 988.9
20260906040052 19 117 0.0 0.0 0.00 0.03 0.03 80 988.7
20260906034549 19 117 0.0 0.0 0.00 0.03 0.03 80 988.3
20260906033047 20 117 0.0 0.0 0.00 0.03 0.03 79 988.0
20260906031545 20 117 0.0 0.0 0.00 0.03 0.03 79 987.7
20260906030050 20 117 0.0 0.0 0.00 0.03 0.03 79 987.7
20260906024514 21 117 0.0 0.0 0.00 0.03 0.03 79 987.7
20260906023014 21 117 0.0 0.0 0.00 0.03 0.03 79 987.4
20260906021510 21 113 0.0 1.6 0.00 0.03 0.03 78 987.0
20260906020010 21 116 0.0 4.8 0.00 0.03 0.03 78 987.0
20260906014525 22 103 0.0 1.6 0.00 0.03 0.03 78 986.8
20260906013019 22 104 0.0 3.2 0.00 0.03 0.03 78 986.4
20260906011507 22 109 0.0 1.6 0.00 0.03 0.03 77 986.1
20260906010020 22 110 0.0 11.3 0.00 0.03 0.03 77 986.0
20260906004506 22 98 0.0 6.4 0.00 0.03 0.03 77 985.9
20260906003006 22 76 0.0 4.8 0.00 0.03 0.03 77 985.7
20260906001555 23 90 0.0 3.2 0.00 0.03 0.03 78 985.9
20260906000035 23 90 0.0 4.8 0.00 0.03 0.03 78 985.9
20260905234533 23 103 0.0 1.6 0.00 0.03 0.03 77 986.1
20260905233033 23 103 3.2 4.8 0.00 0.03 0.03 76 986.2
20260905231540 24 113 0.0 3.2 0.00 0.03 0.03 74 986.4
20260905230036 25 113 0.0 1.6 0.00 0.03 0.03 74 986.4
20260905224540 25 101 0.0 3.2 0.00 0.03 0.03 72 986.3
20260905223036 25 101 0.0 4.8 0.00 0.03 0.03 70 986.2
20260905221525 25 82 1.6 9.7 0.00 0.03 0.03 68 986.3
20260905220027 26 111 3.2 11.3 0.00 0.03 0.03 66 986.4
20260905214520 26 30 1.6 4.8 0.00 0.03 0.03 69 986.6
20260905213021 26 49 0.0 6.4 0.00 0.03 0.03 68 986.6
20260905211535 26 53 1.6 6.4 0.00 0.03 0.03 69 986.7
20260905210016 26 55 0.0 6.4 0.00 0.03 0.03 70 986.6
20260905204522 25 94 1.6 4.8 0.00 0.03 0.03 70 986.5
20260905203010 25 234 0.0 6.4 0.00 0.03 0.03 71 986.7
20260905201509 25 5 1.6 4.8 0.00 0.03 0.03 73 986.7
20260905200009 25 139 1.6 8.0 0.00 0.03 0.03 72 987.1
20260905194506 25 304 1.6 4.8 0.00 0.03 0.03 73 986.9
20260905193008 25 111 0.0 9.7 0.00 0.03 0.03 73 987.0
20260905191509 24 123 4.8 11.3 0.00 0.03 0.03 74 987.0
20260905190005 24 109 4.8 12.9 0.00 0.03 0.03 75 987.0
20260905184504 24 142 6.4 12.9 0.00 0.03 0.03 74 987.1
20260905183000 25 111 4.8 12.9 0.00 0.03 0.03 75 987.2
20260905181602 25 117 9.7 16.1 0.00 0.03 0.03 74 987.3
20260905180103 25 131 9.7 16.1 0.00 0.03 0.03 75 987.3
20260905174558 24 110 6.4 12.9 0.00 0.03 0.03 75 987.4
20260905173029 24 99 4.8 14.5 0.00 0.03 0.03 75 987.5
20260905171527 25 144 3.2 11.3 0.00 0.03 0.03 75 987.5
20260905170022 25 130 1.6 11.3 0.00 0.03 0.03 75 987.4
20260905164522 25 53 4.8 11.3 0.00 0.03 0.03 76 987.1
20260905163024 25 112 6.4 14.5 0.00 0.03 0.03 75 987.3
20260905161523 25 36 1.6 6.4 0.00 0.03 0.03 77 987.2
20260905160016 25 93 4.8 11.3 0.00 0.03 0.03 76 987.1
20260905154513 24 136 1.6 11.3 0.00 0.03 0.03 79 987.1
20260905153018 24 44 4.8 11.3 0.00 0.13 0.03 79 986.9
20260905151506 23 104 6.4 12.9 0.00 0.13 0.03 81 986.9
20260905144558 22 45 3.2 6.4 0.00 0.13 0.03 85 986.5
20260905143055 22 38 3.2 9.7 0.00 0.15 0.03 86 986.5
20260905141553 22 111 3.2 9.7 0.00 0.15 0.03 86 986.4
20260905140051 22 126 0.0 3.2 0.00 0.15 0.03 86 986.4
20260905134550 22 103 1.6 4.8 0.00 0.15 0.03 86 985.9
20260905133044 22 62 3.2 11.3 0.00 0.15 0.03 86 985.6
20260905131545 21 83 3.2 9.7 0.00 0.15 0.03 87 985.7
20260905130042 21 119 0.0 0.0 0.00 0.15 0.03 87 985.7
20260905124534 21 119 0.0 0.0 0.00 0.15 0.03 87 985.4
20260905123033 20 119 0.0 0.0 0.00 0.15 0.03 86 985.5
20260905121530 20 119 0.0 0.0 0.00 0.15 0.03 86 985.3
20260905120027 20 119 0.0 0.0 0.03 0.15 0.03 86 985.2